Home   Weather   Albury   Past weeks

Flag for Australia Past Weather in Albury, New South Wales, Australia — Yesterday and Last 2 Weeks

Now
64 °F

Partly sunny.


Feels Like: 64 °F
Forecast: 48 / 64 °F
Wind: 2 mph from North

Location: Albury Airport

Current Time: Apr 30, 2017 at 3:36:06 pm

Latest Report: Apr 30, 2017 at 3:00 pm


Visibility: N/A

Pressure: 30.12 "Hg

Humidity: 64%

Dew Point: 52 °F

Location of AlburyLocation

Past Weather in Albury — Graph

°F

Albury Temperature Yesterday

Maximum temperature yesterday: 66 °F (at 3:00 pm)
Minimum temperature yesterday: 43 °F (at 5:21 am)
Average temperature yesterday: 52 °F

High & Low Weather Summary for the Past Weeks

 TemperatureHumidityPressure
High79 °F (Apr 18, 1:00 pm)100% (Apr 20, 6:00 am)30.42 "Hg (Apr 20, 6:00 am)
Low37 °F (Apr 27, 6:00 am)36% (Apr 20, 3:00 pm)29.68 "Hg (Apr 26, 6:30 am)
Average58 °F81%30.13 "Hg
* Reported Apr 15 2:00 pm — Apr 30 2:00 pm, Albury, Weather by CustomWeather, © 2017

Note: Actual official high and low records may vary slightly from our data, if they occured in-between our weather recording intervals... More about our weather records

Advertising

Albury Weather History for the Previous 24 Hours

Scroll right to see more
 ConditionsComfort  
Time TempWeatherWind HumidityBarometerVisibility
2:00 pm
Sun, Apr 30
66 °FMore clouds than sun.5 mph64%30.12 "HgN/A
1:00 pm64 °FMore clouds than sun.6 mph68%30.15 "HgN/A
12:00 pm63 °FSunny.3 mph68%30.18 "HgN/A
11:00 am61 °FPartly sunny.6 mph77%30.21 "HgN/A
10:00 am55 °FScattered clouds.5 mph88%30.21 "HgN/A
9:30 am54 °FPartly sunny.3 mph94%30.21 "HgN/A
9:00 am52 °FLow clouds.3 mph100%30.21 "HgN/A
8:30 am50 °FPartly sunny.No wind100%30.21 "HgN/A
8:00 am48 °FLow clouds.3 mph100%30.21 "HgN/A
7:30 am48 °FLow clouds.3 mph100%30.21 "Hg1 mi
7:11 am48 °FLow clouds.No wind100%30.21 "Hg4 mi
7:00 am48 °FLow clouds.No wind100%30.21 "Hg6 mi
6:30 am48 °FLow clouds.No wind100%30.21 "HgN/A
5:30 am48 °FLow clouds.1 mph100%30.18 "Hg4 mi
5:11 am48 °FLow clouds.No wind100%30.18 "Hg4 mi
5:00 am46 °FLow clouds.No wind100%30.18 "HgN/A
4:32 am45 °FPassing clouds.No wind100%30.18 "HgN/A
4:08 am45 °FClear.No wind100%30.18 "Hg3 mi
3:15 am45 °FClear.3 mph100%30.18 "HgN/A
3:00 am46 °FPassing clouds.No wind100%30.18 "Hg2 mi
2:30 am45 °FQuite cool.No wind100%30.18 "Hg1 mi
2:00 am46 °FClear.No wind100%30.18 "HgN/A
1:00 am46 °FClear.No wind100%30.18 "HgN/A
12:30 am46 °FCool.No wind100%30.18 "Hg1 mi
12:00 am48 °FClear.No wind94%30.18 "HgN/A
11:00 pm
Sat, Apr 29
50 °FClear.No wind88%30.18 "HgN/A
10:00 pm50 °FClear.No wind94%30.18 "HgN/A
9:00 pm55 °FClear.3 mph82%30.18 "HgN/A
8:00 pm57 °FPassing clouds.No wind72%30.15 "HgN/A
7:00 pm61 °FOvercast.9 mph63%30.15 "HgN/A
6:00 pm61 °FOvercast.6 mph72%30.15 "HgN/A
5:00 pm64 °FOvercast.10 mph64%30.15 "HgN/A
4:00 pm66 °FOvercast.8 mph64%30.12 "HgN/A
3:00 pm66 °FPartly sunny.6 mph64%30.12 "HgN/A
Weather by CustomWeather, © 2017

See weather overviewHow to use our weather pages